DW5462 Weather Reports


time (UTC)temp
C
wind
direction
speed
KPH
gust
KPH
rain 1hr
cm
rain 24hr
cm
rain mn
cm
humidity
%
barometer
mb
20260505024541 11 292 0.0 0.0 0.00 0.00 0.00 87 1010.2
20260505023030 11 292 0.0 0.0 0.00 0.00 0.00 87 1010.4
20260505021519 11 292 0.0 0.0 0.00 0.00 0.00 87 1010.5
20260505020015 11 292 0.0 0.0 0.00 0.00 0.00 86 1010.7
20260505014513 11 292 0.0 0.0 0.00 0.00 0.00 86 1010.9
20260505013020 11 292 0.0 0.0 0.00 0.00 0.00 86 1010.9
20260505011512 11 292 0.0 0.0 0.00 0.00 0.00 85 1011.1
20260505010010 12 292 0.0 0.0 0.00 0.00 0.00 85 1011.0
20260505004510 12 292 0.0 0.0 0.00 0.00 0.00 84 1011.0
20260505003007 12 292 0.0 0.0 0.00 0.00 0.00 83 1011.1
20260505001553 12 292 0.0 0.0 0.00 0.00 0.00 83 1011.1
20260505000054 12 292 0.0 0.0 0.00 0.00 0.00 82 1011.3
20260504234533 12 292 0.0 0.0 0.00 0.00 0.00 81 1011.5
20260504233032 12 292 0.0 0.0 0.00 0.00 0.00 81 1011.5
20260504231541 12 292 0.0 0.0 0.00 0.00 0.00 81 1011.7
20260504230028 13 292 0.0 0.0 0.00 0.00 0.00 80 1011.8
20260504224528 13 292 0.0 0.0 0.00 0.00 0.00 80 1011.9
20260504223025 13 292 0.0 0.0 0.00 0.00 0.00 79 1011.9
20260504221522 13 292 0.0 0.0 0.00 0.00 0.00 78 1012.0
20260504220021 13 292 0.0 0.0 0.00 0.00 0.00 77 1012.1
20260504214502 14 292 0.0 0.0 0.00 0.00 0.00 76 1012.3
20260504213007 15 292 0.0 0.0 0.00 0.00 0.00 74 1012.5
20260504211552 15 292 0.0 0.0 0.00 0.00 0.00 73 1012.6
20260504210105 15 292 0.0 0.0 0.00 0.00 0.00 70 1012.8
20260504204559 15 292 0.0 0.0 0.00 0.00 0.00 65 1012.8
20260504203050 16 292 0.0 0.0 0.00 0.00 0.00 64 1012.7
20260504201550 16 292 0.0 0.0 0.00 0.00 0.00 63 1012.7
20260504200047 16 292 0.0 0.0 0.00 0.00 0.00 62 1012.5
20260504194602 16 292 0.0 0.0 0.00 0.00 0.00 61 1012.5
20260504193046 16 293 0.0 6.4 0.00 0.00 0.00 61 1012.4
20260504191542 16 267 0.0 8.0 0.00 0.00 0.00 59 1012.3
20260504190035 17 262 0.0 6.4 0.00 0.00 0.00 57 1012.3
20260504184538 17 260 0.0 6.4 0.00 0.00 0.00 57 1012.2
20260504183032 17 355 0.0 3.2 0.00 0.00 0.00 58 1012.2
20260504181537 17 13 0.0 0.0 0.00 0.00 0.00 57 1012.1
20260504180045 18 17 0.0 0.0 0.00 0.00 0.00 57 1012.0
20260504174530 18 17 0.0 0.0 0.00 0.00 0.00 57 1011.8
20260504173033 18 17 0.0 0.0 0.00 0.00 0.00 55 1011.8
20260504171516 18 17 0.0 0.0 0.00 0.00 0.00 54 1011.7
20260504140109 21 336 0.0 6.4 0.00 0.00 0.00 45 1012.4
20260504081529 17 265 0.0 3.2 0.00 0.00 0.00 53 1014.8
20260504044532 7 265 0.0 0.0 0.00 0.00 0.00 81 1014.7
20260504043028 7 265 0.0 0.0 0.00 0.00 0.00 80 1014.6
20260504041525 7 265 0.0 0.0 0.00 0.00 0.00 79 1014.5
20260504040028 8 265 0.0 0.0 0.00 0.00 0.00 79 1014.5
20260504034535 8 265 0.0 0.0 0.00 0.00 0.00 78 1014.5
20260504033023 9 265 0.0 0.0 0.00 0.00 0.00 78 1014.7
20260504031514 9 265 0.0 0.0 0.00 0.00 0.00 77 1014.5
20260504030058 10 265 0.0 0.0 0.00 0.00 0.00 77 1014.5